User: anonymous   Login
Location: Unspecified
(51.0950°N, 12.9690°E)
Time: 00:49:27
(UTC+00:00)
Language:

XW-2B - Orbit

View from above orbital plane
View from above orbital plane
View from above satellite
View from above satellite

Ground track
Ground track

The orbit data is extracted from the following two-line orbital elements,

1 40911U 15049N   24109.50969170  .00051109  00000-0  11394-2 0  9993
2 40911  97.4763 127.0639 0009750 136.8383 223.3631 15.43373477475341
Epoch (UTC): 18 April 2024 12:13:57
Eccentricity: 0.0009750
inclination: 97.4763°
perigee height: 429 km
apogee height: 443 km
right ascension of ascending node: 127.0639°
argument of perigee: 136.8383°
revolutions per day: 15.43373477
mean anomaly at epoch: 223.3631°
orbit number at epoch: 47534

The dashed part of the orbit path shows where the satellite is in the earth's shadow,  

DLR